Simultaneous Nadir Overpasses (SNOs) Predictions

Prediction of SNOs between AQUA and METOP-B Satellite Orbit:

Table of predicted SNOs for the next 14.0 days since TLE Epoch: 10/12/2015
Index Date (AQUA) Time (AQUA) Lat,Lon (AQUA) SZA (AQUA ) Date (METOP-B) Time (METOP-B) Lat,Lon (METOP-B) SZA (METOP-B ) Distance(km) Time Diff (sec)
1 10/14/2015 17:40:27 73.61, -90.43 81.74 10/14/2015 17:39:15 73.54, -90.99 81.68 19.23 72
2 10/14/2015 18:29:55 -73.75, 76.92 98.11 10/14/2015 18:29:52 -73.76, 76.87 98.09 2.51 3
3 10/14/2015 19:19:24 73.82,-115.60 81.98 10/14/2015 19:20:31 73.81,-115.68 81.98 2.51 67
4 10/17/2015 13:14:42 73.68, -24.14 82.85 10/17/2015 13:13:33 73.70, -24.20 82.88 3.00 69
5 10/17/2015 14:04:09 -73.76, 143.32 97.06 10/17/2015 14:04:13 -73.78, 143.31 97.04 1.95 4
6 10/17/2015 14:53:38 73.84, -49.20 83.03 10/17/2015 14:54:51 73.88, -49.12 83.08 5.56 73
7 10/20/2015 08:48:55 73.72, 42.22 83.91 10/20/2015 08:47:53 73.71, 42.24 83.91 0.41 62
8 10/20/2015 09:38:22 -73.80,-150.31 96.00 10/20/2015 09:38:33 -73.80,-150.25 96.00 1.95 11
9 10/20/2015 10:27:56 74.13, 16.58 84.36 10/20/2015 10:29:06 74.14, 17.92 84.35 40.86 70
10 10/23/2015 04:23:08 73.71, 108.67 84.90 10/23/2015 04:22:14 73.72, 108.66 84.92 0.90 54
11 10/23/2015 05:12:35 -73.79, -83.86 95.01 10/23/2015 05:12:54 -73.81, -83.81 94.99 1.92 19
12 10/23/2015 06:02:15 74.44, 82.30 85.67 10/23/2015 06:03:21 74.44, 85.10 85.65 83.59 66
13 10/25/2015 23:57:21 73.73, 175.09
